Torna al catalogo

SL-16 DEB

AttivoLEO
NORAD 22436·DEBRIS·🇷🇺 Russia

Lanciato Dec 25, 1992 da Baikonur Cosmodrome

Loading…

Prossimi Passaggi (prossime 24 ore)

TLE

AggiornatoSource: Space-Track

Epoca: Sep 14, 2026, 03:23 UTC

1 22436U 92093ED  26257.14110986  .00004633  00000-0  53647-3 0  9996
2 22436  71.5041 307.0492 0037580 259.0449 132.0473 14.85520215778700

Traccia SL-16 DEB in tempo reale con AllMySat

Download on the App Store